Year,Month,Day,Hour,Minute,Value (Times are PST for windgust in km/hr)
2015,12,09,00,00,14.50
2015,12,09,00,01,14.50
2015,12,09,00,02,9.60
2015,12,09,00,03,19.30
2015,12,09,00,04,17.70
2015,12,09,00,05,22.50
2015,12,09,00,06,19.30
2015,12,09,00,07,14.50
2015,12,09,00,08,25.70
2015,12,09,00,09,22.50
2015,12,09,00,10,12.90
2015,12,09,00,11,12.90
2015,12,09,00,12,6.40
2015,12,09,00,13,8.10
2015,12,09,00,14,12.90
2015,12,09,00,15,11.30
2015,12,09,00,16,19.30
2015,12,09,00,17,19.30
2015,12,09,00,18,12.90
2015,12,09,00,19,12.90
2015,12,09,00,20,16.10
2015,12,09,00,21,24.20
2015,12,09,00,22,20.90
2015,12,09,00,23,12.90
2015,12,09,00,24,12.90
2015,12,09,00,25,16.10
2015,12,09,00,26,12.90
2015,12,09,00,27,14.50
2015,12,09,00,28,11.30
2015,12,09,00,29,17.70
2015,12,09,00,30,20.90
2015,12,09,00,31,17.70
2015,12,09,00,32,20.90
2015,12,09,00,33,19.30
2015,12,09,00,34,20.90
2015,12,09,00,35,19.30
2015,12,09,00,36,19.30
2015,12,09,00,37,19.30
2015,12,09,00,38,17.70
2015,12,09,00,39,12.90
2015,12,09,00,40,19.30
2015,12,09,00,41,17.70
2015,12,09,00,42,25.70
2015,12,09,00,43,19.30
2015,12,09,00,44,17.70
2015,12,09,00,45,17.70
2015,12,09,00,46,17.70
2015,12,09,00,47,11.30
2015,12,09,00,48,17.70
2015,12,09,00,49,19.30
2015,12,09,00,50,16.10
2015,12,09,00,51,19.30
2015,12,09,00,52,17.70
2015,12,09,00,53,12.90
2015,12,09,00,54,14.50
2015,12,09,00,55,17.70
2015,12,09,00,56,19.30
2015,12,09,00,57,20.90
2015,12,09,00,58,14.50
2015,12,09,00,59,19.30
2015,12,09,01,00,20.90
2015,12,09,01,01,20.90
2015,12,09,01,02,20.90
2015,12,09,01,03,9.60
2015,12,09,01,04,14.50
2015,12,09,01,05,20.90
2015,12,09,01,06,14.50
2015,12,09,01,07,19.30
2015,12,09,01,08,27.40
2015,12,09,01,09,20.90
2015,12,09,01,10,19.30
2015,12,09,01,11,17.70
2015,12,09,01,12,11.30
2015,12,09,01,13,11.30
2015,12,09,01,14,14.50
2015,12,09,01,15,16.10
2015,12,09,01,16,16.10
2015,12,09,01,17,22.50
2015,12,09,01,18,16.10
2015,12,09,01,19,20.90
2015,12,09,01,20,17.70
2015,12,09,01,21,22.50
2015,12,09,01,22,14.50
2015,12,09,01,23,9.60
2015,12,09,01,24,17.70
2015,12,09,01,25,14.50
2015,12,09,01,26,16.10
2015,12,09,01,27,11.30
2015,12,09,01,28,12.90
2015,12,09,01,29,12.90
2015,12,09,01,30,11.30
2015,12,09,01,31,14.50
2015,12,09,01,32,14.50
2015,12,09,01,33,9.60
2015,12,09,01,34,8.10
2015,12,09,01,35,6.40
2015,12,09,01,36,8.10
2015,12,09,01,37,8.10
2015,12,09,01,38,6.40
2015,12,09,01,39,6.40
2015,12,09,01,40,8.10
2015,12,09,01,41,14.50
2015,12,09,01,42,11.30
2015,12,09,01,43,11.30
2015,12,09,01,44,6.40
2015,12,09,01,45,8.10
2015,12,09,01,46,16.10
2015,12,09,01,47,16.10
2015,12,09,01,48,12.90
2015,12,09,01,49,9.60
2015,12,09,01,50,9.60
2015,12,09,01,51,14.50
2015,12,09,01,52,9.60
2015,12,09,01,53,8.10
2015,12,09,01,54,11.30
2015,12,09,01,55,14.50
2015,12,09,01,56,11.30
2015,12,09,01,57,6.40
2015,12,09,01,58,9.60
2015,12,09,01,59,11.30
2015,12,09,02,00,17.70
2015,12,09,02,01,17.70
2015,12,09,02,02,16.10
2015,12,09,02,03,22.50
2015,12,09,02,04,14.50
2015,12,09,02,05,24.20
2015,12,09,02,06,17.70
2015,12,09,02,07,24.20
2015,12,09,02,08,17.70
2015,12,09,02,09,11.30
2015,12,09,02,10,17.70
2015,12,09,02,11,20.90
2015,12,09,02,12,33.80
2015,12,09,02,13,19.30
2015,12,09,02,14,24.20
2015,12,09,02,15,27.40
2015,12,09,02,16,20.90
2015,12,09,02,17,12.90
2015,12,09,02,18,20.90
2015,12,09,02,19,14.50
2015,12,09,02,20,12.90
2015,12,09,02,21,17.70
2015,12,09,02,22,24.20
2015,12,09,02,23,17.70
2015,12,09,02,24,17.70
2015,12,09,02,25,24.20
2015,12,09,02,26,32.20
2015,12,09,02,27,29.00
2015,12,09,02,28,24.20
2015,12,09,02,29,27.40
2015,12,09,02,30,17.70
2015,12,09,02,31,16.10
2015,12,09,02,32,33.80
2015,12,09,02,33,12.90
2015,12,09,02,34,27.40
2015,12,09,02,35,14.50
2015,12,09,02,36,12.90
2015,12,09,02,37,14.50
2015,12,09,02,38,17.70
2015,12,09,02,39,16.10
2015,12,09,02,40,14.50
2015,12,09,02,41,11.30
2015,12,09,02,42,14.50
2015,12,09,02,43,12.90
2015,12,09,02,44,11.30
2015,12,09,02,45,14.50
2015,12,09,02,46,16.10
2015,12,09,02,47,12.90
2015,12,09,02,48,17.70
2015,12,09,02,49,19.30
2015,12,09,02,50,19.30
2015,12,09,02,51,19.30
2015,12,09,02,52,16.10
2015,12,09,02,53,16.10
2015,12,09,02,54,17.70
2015,12,09,02,55,16.10
2015,12,09,02,56,16.10
2015,12,09,02,57,17.70
2015,12,09,02,58,16.10
2015,12,09,02,59,17.70
2015,12,09,03,00,19.30
2015,12,09,03,01,16.10
2015,12,09,03,02,20.90
2015,12,09,03,03,22.50
2015,12,09,03,04,19.30
2015,12,09,03,05,19.30
2015,12,09,03,06,24.20
2015,12,09,03,07,19.30
2015,12,09,03,08,22.50
2015,12,09,03,09,16.10
2015,12,09,03,10,12.90
2015,12,09,03,11,30.60
2015,12,09,03,12,19.30
2015,12,09,03,13,19.30
2015,12,09,03,14,11.30
2015,12,09,03,15,17.70
2015,12,09,03,16,20.90
2015,12,09,03,17,27.40
2015,12,09,03,18,20.90
2015,12,09,03,19,19.30
2015,12,09,03,20,16.10
2015,12,09,03,21,17.70
2015,12,09,03,22,25.70
2015,12,09,03,23,16.10
2015,12,09,03,24,14.50
2015,12,09,03,25,19.30
2015,12,09,03,26,16.10
2015,12,09,03,27,12.90
2015,12,09,03,28,30.60
2015,12,09,03,29,38.60
2015,12,09,03,30,17.70
2015,12,09,03,31,19.30
2015,12,09,03,32,27.40
2015,12,09,03,33,20.90
2015,12,09,03,34,27.40
2015,12,09,03,35,19.30
2015,12,09,03,36,29.00
2015,12,09,03,37,24.20
2015,12,09,03,38,24.20
2015,12,09,03,39,17.70
2015,12,09,03,40,20.90
2015,12,09,03,41,24.20
2015,12,09,03,42,24.20
2015,12,09,03,43,25.70
2015,12,09,03,44,14.50
2015,12,09,03,45,27.40
2015,12,09,03,46,29.00
2015,12,09,03,47,24.20
2015,12,09,03,48,20.90
2015,12,09,03,49,17.70
2015,12,09,03,50,19.30
2015,12,09,03,51,16.10
2015,12,09,03,52,16.10
2015,12,09,03,53,9.60
2015,12,09,03,54,14.50
2015,12,09,03,55,24.20
2015,12,09,03,56,16.10
2015,12,09,03,57,30.60
2015,12,09,03,58,27.40
2015,12,09,03,59,20.90
2015,12,09,04,00,22.50
2015,12,09,04,01,14.50
2015,12,09,04,02,14.50
2015,12,09,04,03,8.10
2015,12,09,04,04,16.10
2015,12,09,04,05,19.30
2015,12,09,04,06,20.90
2015,12,09,04,07,17.70
2015,12,09,04,08,17.70
2015,12,09,04,09,27.40
2015,12,09,04,10,17.70
2015,12,09,04,11,30.60
2015,12,09,04,12,27.40
2015,12,09,04,13,19.30
2015,12,09,04,14,20.90
2015,12,09,04,15,16.10
2015,12,09,04,16,14.50
2015,12,09,04,17,25.70
2015,12,09,04,18,20.90
2015,12,09,04,19,19.30
2015,12,09,04,20,22.50
2015,12,09,04,21,14.50
2015,12,09,04,22,25.70
2015,12,09,04,23,19.30
2015,12,09,04,24,25.70
2015,12,09,04,25,30.60
2015,12,09,04,26,27.40
2015,12,09,04,27,27.40
2015,12,09,04,28,16.10
2015,12,09,04,29,22.50
2015,12,09,04,30,19.30
2015,12,09,04,31,20.90
2015,12,09,04,32,17.70
2015,12,09,04,33,24.20
2015,12,09,04,34,24.20
2015,12,09,04,35,30.60
2015,12,09,04,36,22.50
2015,12,09,04,37,20.90
2015,12,09,04,38,22.50
2015,12,09,04,39,27.40
2015,12,09,04,40,22.50
2015,12,09,04,41,29.00
2015,12,09,04,42,24.20
2015,12,09,04,43,29.00
2015,12,09,04,44,24.20
2015,12,09,04,45,35.40
2015,12,09,04,46,30.60
2015,12,09,04,47,25.70
2015,12,09,04,48,35.40
2015,12,09,04,49,29.00
2015,12,09,04,50,33.80
2015,12,09,04,51,25.70
2015,12,09,04,52,22.50
2015,12,09,04,53,20.90
2015,12,09,04,54,33.80
2015,12,09,04,55,30.60
2015,12,09,04,56,29.00
2015,12,09,04,57,22.50
2015,12,09,04,58,11.30
2015,12,09,04,59,30.60
2015,12,09,05,00,22.50
2015,12,09,05,01,25.70
2015,12,09,05,02,29.00
2015,12,09,05,03,29.00
2015,12,09,05,04,19.30
2015,12,09,05,05,24.20
2015,12,09,05,06,29.00
2015,12,09,05,07,38.60
2015,12,09,05,08,19.30
2015,12,09,05,09,27.40
2015,12,09,05,10,27.40
2015,12,09,05,11,25.70
2015,12,09,05,12,24.20
2015,12,09,05,13,30.60
2015,12,09,05,14,22.50
2015,12,09,05,15,32.20
2015,12,09,05,16,27.40
2015,12,09,05,17,33.80
2015,12,09,05,18,33.80
2015,12,09,05,19,32.20
2015,12,09,05,20,33.80
2015,12,09,05,21,25.70
2015,12,09,05,22,22.50
2015,12,09,05,23,16.10
2015,12,09,05,24,14.50
2015,12,09,05,25,22.50
2015,12,09,05,26,14.50
2015,12,09,05,27,20.90
2015,12,09,05,28,12.90
2015,12,09,05,29,14.50
2015,12,09,05,30,11.30
2015,12,09,05,31,17.70
2015,12,09,05,32,19.30
2015,12,09,05,33,16.10
2015,12,09,05,34,8.10
2015,12,09,05,35,9.60
2015,12,09,05,36,3.20
2015,12,09,05,37,9.60
2015,12,09,05,38,9.60
2015,12,09,05,39,19.30
2015,12,09,05,40,14.50
2015,12,09,05,41,11.30
2015,12,09,05,42,11.30
2015,12,09,05,43,11.30
2015,12,09,05,44,11.30
2015,12,09,05,45,17.70
2015,12,09,05,46,16.10
2015,12,09,05,47,14.50
2015,12,09,05,48,16.10
2015,12,09,05,49,22.50
2015,12,09,05,50,29.00
2015,12,09,05,51,35.40
2015,12,09,05,52,24.20
2015,12,09,05,53,35.40
2015,12,09,05,54,20.90
2015,12,09,05,55,22.50
2015,12,09,05,56,20.90
2015,12,09,05,57,17.70
2015,12,09,05,58,24.20
2015,12,09,05,59,27.40
2015,12,09,06,00,30.60
2015,12,09,06,01,27.40
2015,12,09,06,02,25.70
2015,12,09,06,03,22.50
2015,12,09,06,04,25.70
2015,12,09,06,05,33.80
2015,12,09,06,06,32.20
2015,12,09,06,07,20.90
2015,12,09,06,08,20.90
2015,12,09,06,09,16.10
2015,12,09,06,10,35.40
2015,12,09,06,11,17.70
2015,12,09,06,12,37.00
2015,12,09,06,13,22.50
2015,12,09,06,14,24.20
2015,12,09,06,15,14.50
2015,12,09,06,16,20.90
2015,12,09,06,17,24.20
2015,12,09,06,18,14.50
2015,12,09,06,19,29.00
2015,12,09,06,20,46.70
2015,12,09,06,21,32.20
2015,12,09,06,22,33.80
2015,12,09,06,23,27.40
2015,12,09,06,24,35.40
2015,12,09,06,25,29.00
2015,12,09,06,26,25.70
2015,12,09,06,27,37.00
2015,12,09,06,28,30.60
2015,12,09,06,29,32.20
2015,12,09,06,30,27.40
2015,12,09,06,31,22.50
2015,12,09,06,32,38.60
2015,12,09,06,33,29.00
2015,12,09,06,34,24.20
2015,12,09,06,35,20.90
2015,12,09,06,36,30.60
2015,12,09,06,37,32.20
2015,12,09,06,38,29.00
2015,12,09,06,39,22.50
2015,12,09,06,40,35.40
2015,12,09,06,41,38.60
2015,12,09,06,42,20.90
2015,12,09,06,43,20.90
2015,12,09,06,44,30.60
2015,12,09,06,45,35.40
2015,12,09,06,46,30.60
2015,12,09,06,47,30.60
2015,12,09,06,48,37.00
2015,12,09,06,49,22.50
2015,12,09,06,50,16.10
2015,12,09,06,51,24.20
2015,12,09,06,52,17.70
2015,12,09,06,53,25.70
2015,12,09,06,54,25.70
2015,12,09,06,55,12.90
2015,12,09,06,56,16.10
2015,12,09,06,57,25.70
2015,12,09,06,58,20.90
2015,12,09,06,59,19.30
2015,12,09,07,00,24.20
2015,12,09,07,01,35.40
2015,12,09,07,02,27.40
2015,12,09,07,03,38.60
2015,12,09,07,04,38.60
2015,12,09,07,05,22.50
2015,12,09,07,06,19.30
2015,12,09,07,07,16.10
2015,12,09,07,08,29.00
2015,12,09,07,09,24.20
2015,12,09,07,10,24.20
2015,12,09,07,11,11.30
2015,12,09,07,12,20.90
2015,12,09,07,13,24.20
2015,12,09,07,14,22.50
2015,12,09,07,15,27.40
2015,12,09,07,16,24.20
2015,12,09,07,17,12.90
2015,12,09,07,18,16.10
2015,12,09,07,19,17.70
2015,12,09,07,20,27.40
2015,12,09,07,21,22.50
2015,12,09,07,22,20.90
2015,12,09,07,23,37.00
2015,12,09,07,24,12.90
2015,12,09,07,25,14.50
2015,12,09,07,26,29.00
2015,12,09,07,27,20.90
2015,12,09,07,28,14.50
2015,12,09,07,29,20.90
2015,12,09,07,30,25.70
2015,12,09,07,31,20.90
2015,12,09,07,32,22.50
2015,12,09,07,33,32.20
2015,12,09,07,34,25.70
2015,12,09,07,35,19.30
2015,12,09,07,36,12.90
2015,12,09,07,37,22.50
2015,12,09,07,38,20.90
2015,12,09,07,39,29.00
2015,12,09,07,40,20.90
2015,12,09,07,41,17.70
2015,12,09,07,42,22.50
2015,12,09,07,43,20.90
2015,12,09,07,44,17.70
2015,12,09,07,45,24.20
2015,12,09,07,46,37.00
2015,12,09,07,47,30.60
2015,12,09,07,48,29.00
2015,12,09,07,49,30.60
2015,12,09,07,50,16.10
2015,12,09,07,51,12.90
2015,12,09,07,52,9.60
2015,12,09,07,53,6.40
2015,12,09,07,54,17.70
2015,12,09,07,55,14.50
2015,12,09,07,56,12.90
2015,12,09,07,57,25.70
2015,12,09,07,58,19.30
2015,12,09,07,59,25.70
2015,12,09,08,00,12.90
2015,12,09,08,01,22.50
2015,12,09,08,02,19.30
2015,12,09,08,03,24.20
2015,12,09,08,04,29.00
2015,12,09,08,05,12.90
2015,12,09,08,06,12.90
2015,12,09,08,07,25.70
2015,12,09,08,08,32.20
2015,12,09,08,09,22.50
2015,12,09,08,10,14.50
2015,12,09,08,11,20.90
2015,12,09,08,12,30.60
2015,12,09,08,13,24.20
2015,12,09,08,14,14.50
2015,12,09,08,15,22.50
2015,12,09,08,16,25.70
2015,12,09,08,17,24.20
2015,12,09,08,18,17.70
2015,12,09,08,19,14.50
2015,12,09,08,20,16.10
2015,12,09,08,21,11.30
2015,12,09,08,22,11.30
2015,12,09,08,23,6.40
2015,12,09,08,24,6.40
2015,12,09,08,25,4.80
2015,12,09,08,26,8.10
2015,12,09,08,27,9.60
2015,12,09,08,28,9.60
2015,12,09,08,29,9.60
2015,12,09,08,30,17.70
2015,12,09,08,31,14.50
2015,12,09,08,32,4.80
2015,12,09,08,33,16.10
2015,12,09,08,34,16.10
2015,12,09,08,35,14.50
2015,12,09,08,36,16.10
2015,12,09,08,37,25.70
2015,12,09,08,38,24.20
2015,12,09,08,39,19.30
2015,12,09,08,40,16.10
2015,12,09,08,41,14.50
2015,12,09,08,42,19.30
2015,12,09,08,43,12.90
2015,12,09,08,44,11.30
2015,12,09,08,45,14.50
2015,12,09,08,46,24.20
2015,12,09,08,47,14.50
2015,12,09,08,48,16.10
2015,12,09,08,49,11.30
2015,12,09,08,50,16.10
2015,12,09,08,51,32.20
2015,12,09,08,52,25.70
2015,12,09,08,53,32.20
2015,12,09,08,54,22.50
2015,12,09,08,55,27.40
2015,12,09,08,56,20.90
2015,12,09,08,57,14.50
2015,12,09,08,58,17.70
2015,12,09,08,59,24.20
2015,12,09,09,00,22.50
2015,12,09,09,01,24.20
2015,12,09,09,02,20.90
2015,12,09,09,03,20.90
2015,12,09,09,04,12.90
2015,12,09,09,05,22.50
2015,12,09,09,06,27.40
2015,12,09,09,07,27.40
2015,12,09,09,08,20.90
2015,12,09,09,09,14.50
2015,12,09,09,10,17.70
2015,12,09,09,11,16.10
2015,12,09,09,12,11.30
2015,12,09,09,13,12.90
2015,12,09,09,14,20.90
2015,12,09,09,15,17.70
2015,12,09,09,16,14.50
2015,12,09,09,17,24.20
2015,12,09,09,18,20.90
2015,12,09,09,19,11.30
2015,12,09,09,20,12.90
2015,12,09,09,21,22.50
2015,12,09,09,22,12.90
2015,12,09,09,23,12.90
2015,12,09,09,24,11.30
2015,12,09,09,25,29.00
2015,12,09,09,26,17.70
2015,12,09,09,27,27.40
2015,12,09,09,28,11.30
2015,12,09,09,29,12.90
2015,12,09,09,30,17.70
2015,12,09,09,31,24.20
2015,12,09,09,32,19.30
2015,12,09,09,33,16.10
2015,12,09,09,34,20.90
2015,12,09,09,35,16.10
2015,12,09,09,36,16.10
2015,12,09,09,37,8.10
2015,12,09,09,38,16.10
2015,12,09,09,39,22.50
2015,12,09,09,40,27.40
2015,12,09,09,41,12.90
2015,12,09,09,42,11.30
2015,12,09,09,43,17.70
2015,12,09,09,44,19.30
2015,12,09,09,45,24.20
2015,12,09,09,46,9.60
2015,12,09,09,47,8.10
2015,12,09,09,48,14.50
2015,12,09,09,49,8.10
2015,12,09,09,50,17.70
2015,12,09,09,51,12.90
2015,12,09,09,52,14.50
2015,12,09,09,53,14.50
2015,12,09,09,54,8.10
2015,12,09,09,55,20.90
2015,12,09,09,56,22.50
2015,12,09,09,57,14.50
2015,12,09,09,58,11.30
2015,12,09,09,59,9.60
2015,12,09,10,00,16.10
2015,12,09,10,01,16.10
2015,12,09,10,02,16.10
2015,12,09,10,03,12.90
2015,12,09,10,04,14.50
2015,12,09,10,05,12.90
2015,12,09,10,06,11.30
2015,12,09,10,07,19.30
2015,12,09,10,08,19.30
2015,12,09,10,09,14.50
2015,12,09,10,10,24.20
2015,12,09,10,11,14.50
2015,12,09,10,12,11.30
2015,12,09,10,13,14.50
2015,12,09,10,14,22.50
2015,12,09,10,15,16.10
2015,12,09,10,16,19.30
2015,12,09,10,17,12.90
2015,12,09,10,18,8.10
2015,12,09,10,19,19.30
2015,12,09,10,20,20.90
2015,12,09,10,21,16.10
2015,12,09,10,22,16.10
2015,12,09,10,23,14.50
2015,12,09,10,24,14.50
2015,12,09,10,25,17.70
2015,12,09,10,26,14.50
2015,12,09,10,27,16.10
2015,12,09,10,28,14.50
2015,12,09,10,29,20.90
2015,12,09,10,30,17.70
2015,12,09,10,31,11.30
2015,12,09,10,32,9.60
2015,12,09,10,33,9.60
2015,12,09,10,34,8.10
2015,12,09,10,35,17.70
2015,12,09,10,36,19.30
2015,12,09,10,37,19.30
2015,12,09,10,38,14.50
2015,12,09,10,39,19.30
2015,12,09,10,40,11.30
2015,12,09,10,41,20.90
2015,12,09,10,42,9.60
2015,12,09,10,43,19.30
2015,12,09,10,44,11.30
2015,12,09,10,45,11.30
2015,12,09,10,46,22.50
2015,12,09,10,47,16.10
2015,12,09,10,48,17.70
2015,12,09,10,49,19.30
2015,12,09,10,50,20.90
2015,12,09,10,51,22.50
2015,12,09,10,52,11.30
2015,12,09,10,53,12.90
2015,12,09,10,54,6.40
2015,12,09,10,55,20.90
2015,12,09,10,56,16.10
2015,12,09,10,57,20.90
2015,12,09,10,58,19.30
2015,12,09,10,59,12.90
2015,12,09,11,00,11.30
2015,12,09,11,01,16.10
2015,12,09,11,02,19.30
2015,12,09,11,03,12.90
2015,12,09,11,04,9.60
2015,12,09,11,05,11.30
2015,12,09,11,06,12.90
2015,12,09,11,07,17.70
2015,12,09,11,08,16.10
2015,12,09,11,09,12.90
2015,12,09,11,10,16.10
2015,12,09,11,11,8.10
2015,12,09,11,12,6.40
2015,12,09,11,13,11.30
2015,12,09,11,14,19.30
2015,12,09,11,15,9.60
2015,12,09,11,16,12.90
2015,12,09,11,17,22.50
2015,12,09,11,18,17.70
2015,12,09,11,19,19.30
2015,12,09,11,20,12.90
2015,12,09,11,21,19.30
2015,12,09,11,22,16.10
2015,12,09,11,23,20.90
2015,12,09,11,24,20.90
2015,12,09,11,25,22.50
2015,12,09,11,26,12.90
2015,12,09,11,27,14.50
2015,12,09,11,28,12.90
2015,12,09,11,29,14.50
2015,12,09,11,30,11.30
2015,12,09,11,31,12.90
2015,12,09,11,32,12.90
2015,12,09,11,33,4.80
2015,12,09,11,34,20.90
2015,12,09,11,35,20.90
2015,12,09,11,36,11.30
2015,12,09,11,37,16.10
2015,12,09,11,38,14.50
2015,12,09,11,39,12.90
2015,12,09,11,40,14.50
2015,12,09,11,41,19.30
2015,12,09,11,42,12.90
2015,12,09,11,43,14.50
2015,12,09,11,44,12.90
2015,12,09,11,45,14.50
2015,12,09,11,46,12.90
2015,12,09,11,47,8.10
2015,12,09,11,48,12.90
2015,12,09,11,49,14.50
2015,12,09,11,50,16.10
2015,12,09,11,51,27.40
2015,12,09,11,52,25.70
2015,12,09,11,53,29.00
2015,12,09,11,54,22.50
2015,12,09,11,55,24.20
2015,12,09,11,56,29.00
2015,12,09,11,57,25.70
2015,12,09,11,58,25.70
2015,12,09,11,59,19.30
2015,12,09,12,00,22.50
2015,12,09,12,01,19.30
2015,12,09,12,02,17.70
2015,12,09,12,03,16.10
2015,12,09,12,04,11.30
2015,12,09,12,05,11.30
2015,12,09,12,06,4.80
2015,12,09,12,07,14.50
2015,12,09,12,08,17.70
2015,12,09,12,09,20.90
2015,12,09,12,10,22.50
2015,12,09,12,11,19.30
2015,12,09,12,12,24.20
2015,12,09,12,13,16.10
2015,12,09,12,14,12.90
2015,12,09,12,15,19.30
2015,12,09,12,16,14.50
2015,12,09,12,17,22.50
2015,12,09,12,18,20.90
2015,12,09,12,19,16.10
2015,12,09,12,20,20.90
2015,12,09,12,21,19.30
2015,12,09,12,22,20.90
2015,12,09,12,23,12.90
2015,12,09,12,24,14.50
2015,12,09,12,25,17.70
2015,12,09,12,26,24.20
2015,12,09,12,27,17.70
2015,12,09,12,28,17.70
2015,12,09,12,29,17.70
2015,12,09,12,30,14.50
2015,12,09,12,31,12.90
2015,12,09,12,32,19.30
2015,12,09,12,33,12.90
2015,12,09,12,34,6.40
2015,12,09,12,35,9.60
2015,12,09,12,36,1.60
2015,12,09,12,37,11.30
2015,12,09,12,38,11.30
2015,12,09,12,39,11.30
2015,12,09,12,40,12.90
2015,12,09,12,41,9.60
2015,12,09,12,42,14.50
2015,12,09,12,43,4.80
2015,12,09,12,44,8.10
2015,12,09,12,45,11.30
2015,12,09,12,46,12.90
2015,12,09,12,47,11.30
2015,12,09,12,48,12.90
2015,12,09,12,49,9.60
2015,12,09,12,50,6.40
2015,12,09,12,51,17.70
2015,12,09,12,52,11.30
2015,12,09,12,53,9.60
2015,12,09,12,54,16.10
2015,12,09,12,55,14.50
2015,12,09,12,56,12.90
2015,12,09,12,57,12.90
2015,12,09,12,58,11.30
2015,12,09,12,59,14.50
2015,12,09,13,00,11.30
2015,12,09,13,01,9.60
2015,12,09,13,02,6.40
2015,12,09,13,03,14.50
2015,12,09,13,04,12.90
2015,12,09,13,05,14.50
2015,12,09,13,06,12.90
2015,12,09,13,07,22.50
2015,12,09,13,08,17.70
2015,12,09,13,09,25.70
2015,12,09,13,10,29.00
2015,12,09,13,11,30.60
2015,12,09,13,12,20.90
2015,12,09,13,13,17.70
2015,12,09,13,14,16.10
2015,12,09,13,15,12.90
2015,12,09,13,16,11.30
2015,12,09,13,17,16.10
2015,12,09,13,18,11.30
2015,12,09,13,19,6.40
2015,12,09,13,20,1.60
2015,12,09,13,21,4.80
2015,12,09,13,22,9.60
2015,12,09,13,23,11.30
2015,12,09,13,24,4.80
2015,12,09,13,25,9.60
2015,12,09,13,26,4.80
2015,12,09,13,27,6.40
2015,12,09,13,28,3.20
2015,12,09,13,29,8.10
2015,12,09,13,30,8.10
2015,12,09,13,31,3.20
2015,12,09,13,32,1.60
2015,12,09,13,33,1.60
2015,12,09,13,35,3.20
2015,12,09,13,36,1.60
2015,12,09,13,37,1.60
2015,12,09,13,38,3.20
2015,12,09,13,40,1.60
2015,12,09,13,41,8.10
2015,12,09,13,42,4.80
2015,12,09,13,43,8.10
2015,12,09,13,44,9.60
2015,12,09,13,45,6.40
2015,12,09,13,46,9.60
2015,12,09,13,47,8.10
2015,12,09,13,48,6.40
2015,12,09,13,49,4.80
2015,12,09,13,50,3.20
2015,12,09,13,51,1.60
2015,12,09,13,52,1.60
2015,12,09,13,53,4.80
2015,12,09,13,54,3.20
2015,12,09,13,55,6.40
2015,12,09,13,56,4.80
2015,12,09,13,59,1.60
2015,12,09,14,02,3.20
2015,12,09,14,03,1.60
2015,12,09,14,04,1.60
2015,12,09,14,05,3.20
2015,12,09,14,06,8.10
2015,12,09,14,07,6.40
2015,12,09,14,08,3.20
2015,12,09,14,10,3.20
2015,12,09,14,11,6.40
2015,12,09,14,12,1.60
2015,12,09,14,13,3.20
2015,12,09,14,14,3.20
2015,12,09,14,16,6.40
2015,12,09,14,17,4.80
2015,12,09,14,18,3.20
2015,12,09,14,19,8.10
2015,12,09,14,20,6.40
2015,12,09,14,21,4.80
2015,12,09,14,22,6.40
2015,12,09,14,23,6.40
2015,12,09,14,24,4.80
2015,12,09,14,25,3.20
2015,12,09,14,26,3.20
2015,12,09,14,27,4.80
2015,12,09,14,28,3.20
2015,12,09,14,29,1.60
2015,12,09,14,30,1.60
2015,12,09,14,31,3.20
2015,12,09,14,32,4.80
2015,12,09,14,33,4.80
2015,12,09,14,34,6.40
2015,12,09,14,35,6.40
2015,12,09,14,36,4.80
2015,12,09,14,37,6.40
2015,12,09,14,38,4.80
2015,12,09,14,39,4.80
2015,12,09,14,40,6.40
2015,12,09,14,41,4.80
2015,12,09,14,42,3.20
2015,12,09,14,43,1.60
2015,12,09,14,44,3.20
2015,12,09,14,45,4.80
2015,12,09,14,46,4.80
2015,12,09,14,47,4.80
2015,12,09,14,48,1.60
2015,12,09,14,49,3.20
2015,12,09,14,50,1.60
2015,12,09,14,51,1.60
2015,12,09,14,53,1.60
2015,12,09,14,54,3.20
2015,12,09,14,55,3.20
2015,12,09,14,56,1.60
2015,12,09,14,57,1.60
2015,12,09,14,58,1.60
2015,12,09,14,59,3.20
2015,12,09,15,00,6.40
2015,12,09,15,01,3.20
2015,12,09,15,02,4.80
2015,12,09,15,03,3.20
2015,12,09,15,04,1.60
2015,12,09,15,05,3.20
2015,12,09,15,09,1.60
2015,12,09,15,10,1.60
2015,12,09,15,11,3.20
2015,12,09,15,12,4.80
2015,12,09,15,13,4.80
2015,12,09,15,14,3.20
2015,12,09,15,15,6.40
2015,12,09,15,16,4.80
2015,12,09,15,17,4.80
2015,12,09,15,18,6.40
2015,12,09,15,19,4.80
2015,12,09,15,20,6.40
2015,12,09,15,21,4.80
2015,12,09,15,22,4.80
2015,12,09,15,23,8.10
2015,12,09,15,24,6.40
2015,12,09,15,25,6.40
2015,12,09,15,26,6.40
2015,12,09,15,27,9.60
2015,12,09,15,28,8.10
2015,12,09,15,29,9.60
2015,12,09,15,30,8.10
2015,12,09,15,31,8.10
2015,12,09,15,32,8.10
2015,12,09,15,33,8.10
2015,12,09,15,34,8.10
2015,12,09,15,35,6.40
2015,12,09,15,36,8.10
2015,12,09,15,37,8.10
2015,12,09,15,38,9.60
2015,12,09,15,39,9.60
2015,12,09,15,40,9.60
2015,12,09,15,41,9.60
2015,12,09,15,42,9.60
2015,12,09,15,43,9.60
2015,12,09,15,44,8.10
2015,12,09,15,45,9.60
2015,12,09,15,46,11.30
2015,12,09,15,47,9.60
2015,12,09,15,48,9.60
2015,12,09,15,49,9.60
2015,12,09,15,50,11.30
2015,12,09,15,51,11.30
2015,12,09,15,52,9.60
2015,12,09,15,53,9.60
2015,12,09,15,54,8.10
2015,12,09,15,55,9.60
2015,12,09,15,56,9.60
2015,12,09,15,57,9.60
2015,12,09,15,58,11.30
2015,12,09,15,59,9.60
2015,12,09,16,00,9.60
2015,12,09,16,01,11.30
2015,12,09,16,02,9.60
2015,12,09,16,03,9.60
2015,12,09,16,04,9.60
2015,12,09,16,05,9.60
2015,12,09,16,06,12.90
2015,12,09,16,07,11.30
2015,12,09,16,08,11.30
2015,12,09,16,09,11.30
2015,12,09,16,10,11.30
2015,12,09,16,11,11.30
2015,12,09,16,12,11.30
2015,12,09,16,13,11.30
2015,12,09,16,14,9.60
2015,12,09,16,15,9.60
2015,12,09,16,16,8.10
2015,12,09,16,17,3.20
2015,12,09,16,18,3.20
2015,12,09,16,19,3.20
2015,12,09,16,20,6.40
2015,12,09,16,21,11.30
2015,12,09,16,22,3.20
2015,12,09,16,23,9.60
2015,12,09,16,24,6.40
2015,12,09,16,25,9.60
2015,12,09,16,26,3.20
2015,12,09,16,27,8.10
2015,12,09,16,28,3.20
2015,12,09,16,29,6.40
2015,12,09,16,30,6.40
2015,12,09,16,31,11.30
2015,12,09,16,32,6.40
2015,12,09,16,33,9.60
2015,12,09,16,34,11.30
2015,12,09,16,35,11.30
2015,12,09,16,36,9.60
2015,12,09,16,37,11.30
2015,12,09,16,38,6.40
2015,12,09,16,39,8.10
2015,12,09,16,40,6.40
2015,12,09,16,41,6.40
2015,12,09,16,42,9.60
2015,12,09,16,43,12.90
2015,12,09,16,44,11.30
2015,12,09,16,45,12.90
2015,12,09,16,46,11.30
2015,12,09,16,47,11.30
2015,12,09,16,48,8.10
2015,12,09,16,49,11.30
2015,12,09,16,50,9.60
2015,12,09,16,51,8.10
2015,12,09,16,52,8.10
2015,12,09,16,53,6.40
2015,12,09,16,54,3.20
2015,12,09,16,55,3.20
2015,12,09,16,57,1.60
2015,12,09,16,58,1.60
2015,12,09,16,59,1.60
2015,12,09,17,06,1.60
2015,12,09,17,08,3.20
2015,12,09,17,09,3.20
2015,12,09,17,11,3.20
2015,12,09,17,12,1.60
2015,12,09,17,13,3.20
2015,12,09,17,14,1.60
2015,12,09,17,15,1.60
2015,12,09,17,16,1.60
2015,12,09,17,17,3.20
2015,12,09,17,19,1.60
2015,12,09,17,21,3.20
2015,12,09,17,25,1.60
2015,12,09,17,26,8.10
2015,12,09,17,27,6.40
2015,12,09,17,28,1.60
2015,12,09,17,29,1.60
2015,12,09,17,30,6.40
2015,12,09,17,31,3.20
2015,12,09,17,32,3.20
2015,12,09,17,33,12.90
2015,12,09,17,34,8.10
2015,12,09,17,35,11.30
2015,12,09,17,36,6.40
2015,12,09,17,37,1.60
2015,12,09,17,38,1.60
2015,12,09,17,39,1.60
2015,12,09,17,40,9.60
2015,12,09,17,41,9.60
2015,12,09,17,42,8.10
2015,12,09,17,43,8.10
2015,12,09,17,44,6.40
2015,12,09,17,45,11.30
2015,12,09,17,46,12.90
2015,12,09,17,47,8.10
2015,12,09,17,48,11.30
2015,12,09,17,49,12.90
2015,12,09,17,50,11.30
2015,12,09,17,51,14.50
2015,12,09,17,52,9.60
2015,12,09,17,53,17.70
2015,12,09,17,54,9.60
2015,12,09,17,55,11.30
2015,12,09,17,56,11.30
2015,12,09,17,57,8.10